Regional Weather Roundup
Issued by NWS

Home | Current Version | Previous Version | Graphics & Text | Print | Product List | Glossary On
Versions: 1 2 3 4 5 6 7 8 9 10 11 12 13 14 15 16 17 18 19 20 21 22 23 24 25 26 27 28 29 30 31 32 33 34 35 36 37 38 39 40 41 42 43 44 45 46 47 48 49 50
000
ASUS45 KABQ 231001
RWRNM
NEW MEXICO REGIONAL WEATHER ROUNDUP
NATIONAL WEATHER SERVICE ALBUQUERQUE NM
300 AM MST THU NOV 23 2017

NOTE: "FAIR" MEANS FEW OR NO CLOUDS BELOW 12,000 FEET AGL WITH NO
       SIGNIFICANT WEATHER OR OBSTRUCTIONS TO VISION.

      THIS PRODUCT IS RELEASED AS TWO VERSIONS.  ONE VERSION NEAR
      THE TOP OF THE HOUR CONTAINING PRELIMINARY DATA FROM ALBUQUERQUE
      AND OTHER STATIONS.  A FINAL VERSION WITH ADDITIONAL DATA IS
      ISSUED ABOUT 10 MINUTES AFTER THE HOUR.

NMZ501-503-504-510>518-231100-
NORTHWEST PLATEAU/NORTHCENTRAL MOUNTAINS

CITY           SKY/WX    TMP DP  RH WIND       PRES   REMARKS
FARMINGTON     FAIR      28  20  71 E6        30.36R WCI  22
LOS ALAMOS     FAIR      50  28  42 N10G17    30.38F
SANTA FE       FAIR      39  27  62 NE13      30.33F WCI  31
TAOS           FAIR      30  24  78 NE7       30.42S WCI  23
ANGEL FIRE     FAIR      27  24  91 CALM      30.44R

$$
NMZ402-403-502-505>509-231100-
WESTCENTRAL MOUNTAINS/SOUTHWEST MOUNTAINS

CITY           SKY/WX    TMP DP  RH WIND       PRES   REMARKS
GALLUP         FAIR      25  17  72 E5        30.41S WCI  19
GRANTS         FAIR      30  23  75 NW15      30.41S WCI  19
SILVER CITY    FAIR      39  19  46 N10       30.30S WCI  32

$$
NMZ407-409-411-412-231100-
SOUTHERN DESERTS

CITY           SKY/WX    TMP DP  RH WIND       PRES   REMARKS
DEMING         FAIR      34  17  50 CALM      30.27F
LAS CRUCES     FAIR      40  22  48 N5        30.28S
ALAMOGORDO     FAIR      39  23  52 SE3       30.28S
T OR C         FAIR      43  22  43 NW6       30.28S

$$
NMZ519>523-231100-
CENTRAL VALLEYS/CENTRAL HIGHLANDS

CITY           SKY/WX    TMP DP  RH WIND       PRES   REMARKS
ALBUQUERQUE    FAIR      44  28  53 CALM      30.33R
DOUBLE EAGLE   FAIR      35  26  67 NW5       30.34F WCI  31
MORIARTY ARPT  FAIR      27  20  72 NE3       30.34F
CLINES CORNERS FAIR      41  25  53 NW9       30.35S
BELEN          FAIR      36  24  63 NW7       30.33R WCI  30
SOCORRO        FAIR      39  24  55 NW6       30.30S WCI  34

$$
NMZ524>526-539-540-231100-
SOUTHCENTRAL MOUNTAINS

CITY           SKY/WX    TMP DP  RH WIND       PRES   REMARKS
RUIDOSO        FAIR      45  23  42 W7        30.35S

$$
NMZ527>531-231100-
NORTHEAST HIGHLANDS/NORTHEAST PLAINS

CITY           SKY/WX    TMP DP  RH WIND       PRES   REMARKS
LAS VEGAS      FAIR      43  28  55 NW7       30.33S
RATON          FAIR      35  25  66 NW7       30.31S WCI  29
CLAYTON        FAIR      48  28  46 NW9       30.24R

$$
NMZ532>537-231100-
EASTCENTRAL PLAINS

CITY           SKY/WX    TMP DP  RH WIND       PRES   REMARKS
SANTA ROSA     FAIR      39  28  65 CALM      30.25S
TUCUMCARI      FAIR      37  28  70 W8        30.21S WCI  31
CANNON AFB     FAIR      44  29  56 NW8       30.23S
CLOVIS AIRPORT FAIR      42  29  59 NW9       30.23S

$$
NMZ028-029-538-231100-
SOUTHEAST PLAINS

CITY           SKY/WX    TMP DP  RH WIND       PRES   REMARKS
ROSWELL        FAIR      38  27  64 NW5       30.23S WCI  34
ARTESIA        FAIR      36  25  64 NW8       30.24S WCI  29
CARLSBAD       FAIR      39  30  70 NW5       30.21S
HOBBS          FAIR      32  27  80 N7        30.22S WCI  26


$$




USA.gov is the U.S. government's official web portal to all federal, state and local government web resources and services.